Home   Weather   Montego Bay   Past weeks

Flag for Jamaica Past Weather in Montego Bay, Jamaica — Yesterday and Last 2 Weeks

84 °F

Scattered clouds.

Feels Like: 94 °F
Forecast: N/A
Wind: 14 mph from East

Location: Montego Bay / Sangster

Current Time: Oct 24, 2016 at 5:01:18 PM

Latest Report: Oct 24, 2016 at 4:00 PM

Visibility: N/A

Pressure: 29.89 "Hg

Humidity: 79%

Dew Point: 77 °F

Location of Montego BayLocation

Past Weather in Montego Bay — Graph


Montego Bay Temperature Yesterday

Maximum temperature yesterday: 84 °F (at 2:00 PM)
Minimum temperature yesterday: 79 °F (at 1:00 AM)
Average temperature yesterday: 81 °F

High & Low Weather Summary for the Past Weeks

High90 °F (Oct 15, 1:00 PM)100% (Oct 11, 5:00 AM)30.01 "Hg (Oct 11, 5:00 AM)
Low77 °F (Oct 11, 3:00 AM)70% (Oct 10, 9:00 AM)29.74 "Hg (Oct 17, 5:00 AM)
Average82 °F85%29.85 "Hg
* Reported Oct 9 4:00 PM — Oct 24 4:00 PM, Montego Bay, Weather by CustomWeather, © 2016

Note: Actual official high and low records may vary slightly from our data, if they occured in-between our weather recording intervals... More about our weather records


Montego Bay Weather History for the Previous 24 Hours

Scroll right to see more
Time TempWeatherWind HumidityBarometerVisibility
4:00 PM
Mon, Oct 24
84 °FScattered clouds.14 mph79%29.89 "HgN/A
3:00 PM84 °FPassing clouds.14 mph79%29.89 "HgN/A
1:00 PM86 °FPassing clouds.15 mph75%29.92 "HgN/A
12:00 PM86 °FScattered clouds.16 mph75%29.95 "HgN/A
11:00 AM86 °FScattered clouds.10 mph79%29.98 "HgN/A
10:00 AM86 °FScattered clouds.15 mph79%29.98 "HgN/A
9:00 AM82 °FPassing clouds.9 mph89%29.98 "HgN/A
8:00 AM81 °FScattered clouds.7 mph94%29.98 "HgN/A
7:00 AM81 °FPassing clouds.10 mph89%29.95 "HgN/A
6:00 AM79 °FPassing clouds.5 mph89%29.95 "HgN/A
5:00 AM79 °FPassing clouds.5 mph89%29.92 "HgN/A
4:00 AM79 °FPassing clouds.9 mph89%29.92 "HgN/A
3:00 AM77 °FPassing clouds.2 mph89%29.92 "HgN/A
2:00 AM79 °FPassing clouds.6 mph89%29.92 "HgN/A
1:00 AM79 °FPassing clouds.5 mph89%29.95 "HgN/A
12:00 AM79 °FPassing clouds.2 mph89%29.95 "HgN/A
11:00 PM
Sun, Oct 23
79 °FPassing clouds.2 mph89%29.98 "HgN/A
10:00 PM81 °FPassing clouds.8 mph84%29.98 "HgN/A
9:00 PM81 °FPassing clouds.6 mph84%29.98 "HgN/A
8:00 PM81 °FPassing clouds.5 mph79%29.95 "HgN/A
7:00 PM81 °FPassing clouds.7 mph79%29.95 "HgN/A
6:00 PM81 °FPassing clouds.8 mph84%29.95 "HgN/A
5:00 PM82 °FPartly sunny.7 mph84%29.92 "HgN/A
Weather by CustomWeather, © 2016

See weather overviewHow to use our weather pages